TimeEET,TemperatureF,Dew PointF,Humidity,Sea Level PressureIn,VisibilityMPH,Wind Direction,Wind SpeedMPH,Gust SpeedMPH,PrecipitationIn,Events,Conditions,WindDirDegrees,DateUTC
12:20 AM,57.2,51.8,82,29.98,6.2,East,4.6,-,N/A,,Scattered Clouds,80,2012-11-12 22:20:00
12:50 AM,57.2,51.8,82,29.98,6.2,WNW,2.3,-,N/A,,Scattered Clouds,290,2012-11-12 22:50:00
1:20 AM,57.2,51.8,82,29.98,6.2,SW,2.3,-,N/A,,Scattered Clouds,230,2012-11-12 23:20:00
1:50 AM,55.4,51.8,88,29.98,6.2,North,3.5,-,N/A,,Scattered Clouds,350,2012-11-12 23:50:00
2:00 AM,55,52,84,29.99,12,North,3.5,,,,Scattered Clouds,350,2012-11-13 00:00:00
2:20 AM,55.4,53.6,94,29.98,6.2,NNW,4.6,-,N/A,,Scattered Clouds,330,2012-11-13 00:20:00
2:50 AM,53.6,50.0,88,29.95,6.2,NNW,6.9,-,N/A,,Scattered Clouds,340,2012-11-13 00:50:00
3:20 AM,53.6,50.0,88,29.98,6.2,NNE,5.8,-,N/A,,Partly Cloudy,30,2012-11-13 01:20:00
3:50 AM,55.4,51.8,88,29.98,6.2,WSW,3.5,-,N/A,,Partly Cloudy,240,2012-11-13 01:50:00
4:20 AM,55.4,51.8,88,29.98,6.2,WNW,2.3,-,N/A,,Partly Cloudy,300,2012-11-13 02:20:00
4:50 AM,55.4,51.8,88,29.98,6.2,NNW,3.5,-,N/A,,Partly Cloudy,330,2012-11-13 02:50:00
5:20 AM,53.6,50.0,88,29.98,6.2,NNE,6.9,-,N/A,,Partly Cloudy,30,2012-11-13 03:20:00
5:50 AM,51.8,48.2,88,29.98,6.2,North,8.1,-,N/A,,Partly Cloudy,360,2012-11-13 03:50:00
6:20 AM,53.6,48.2,82,29.98,6.2,NW,2.3,-,N/A,,Partly Cloudy,320,2012-11-13 04:20:00
6:50 AM,53.6,48.2,82,30.01,6.2,North,3.5,-,N/A,,Scattered Clouds,10,2012-11-13 04:50:00
7:20 AM,53.6,50.0,88,30.01,6.2,North,5.8,-,N/A,,Scattered Clouds,10,2012-11-13 05:20:00
7:50 AM,57.2,51.8,82,30.01,6.2,North,6.9,-,N/A,,Scattered Clouds,360,2012-11-13 05:50:00
8:00 AM,57,52,79,30.02,6,North,6.9,,,,Partly Cloudy,0,2012-11-13 06:00:00
8:20 AM,60.8,53.6,77,30.04,6.2,NE,1.2,-,N/A,,Scattered Clouds,50,2012-11-13 06:20:00
8:50 AM,66.2,51.8,60,30.04,6.2,NW,2.3,-,N/A,,Scattered Clouds,320,2012-11-13 06:50:00
9:20 AM,66.2,50.0,56,30.04,6.2,NW,1.2,-,N/A,,Scattered Clouds,320,2012-11-13 07:20:00
9:50 AM,68.0,48.2,49,30.04,6.2,Variable,2.3,-,N/A,,Scattered Clouds,0,2012-11-13 07:50:00
10:20 AM,69.8,48.2,46,30.01,6.2,SW,1.2,-,N/A,,Scattered Clouds,220,2012-11-13 08:20:00
10:50 AM,69.8,48.2,46,30.01,6.2,Variable,2.3,-,N/A,,Scattered Clouds,0,2012-11-13 08:50:00
11:20 AM,71.6,50.0,46,30.01,6.2,Variable,2.3,-,N/A,,Scattered Clouds,0,2012-11-13 09:20:00
11:50 AM,73.4,48.2,41,29.98,6.2,Variable,2.3,-,N/A,,Scattered Clouds,0,2012-11-13 09:50:00
12:20 PM,73.4,50.0,44,29.98,6.2,NE,2.3,-,N/A,,Partly Cloudy,50,2012-11-13 10:20:00
12:50 PM,73.4,50.0,44,29.98,6.2,SW,5.8,-,N/A,,Partly Cloudy,220,2012-11-13 10:50:00
1:20 PM,73.4,50.0,44,29.95,-9999.0,SW,3.5,-,N/A,,Clear,220,2012-11-13 11:20:00
1:50 PM,73.4,50.0,44,29.95,-9999.0,SSW,3.5,-,N/A,,Clear,210,2012-11-13 11:50:00
2:00 PM,74,49,31,29.96,6,SSW,3.5,,,,,210,2012-11-13 12:00:00
2:20 PM,73.4,50.0,44,29.95,-9999.0,Variable,2.3,-,N/A,,Clear,0,2012-11-13 12:20:00
2:50 PM,73.4,50.0,44,29.95,-9999.0,WSW,5.8,-,N/A,,Clear,240,2012-11-13 12:50:00
3:20 PM,73.4,53.6,50,29.95,-9999.0,SSW,6.9,-,N/A,,Clear,200,2012-11-13 13:20:00
3:50 PM,71.6,53.6,53,29.95,-9999.0,SW,5.8,-,N/A,,Clear,230,2012-11-13 13:50:00
4:20 PM,69.8,51.8,53,29.95,-9999.0,WSW,4.6,-,N/A,,Clear,240,2012-11-13 14:20:00
4:50 PM,66.2,51.8,60,29.95,-9999.0,WSW,5.8,-,N/A,,Clear,250,2012-11-13 14:50:00
5:20 PM,66.2,53.6,64,29.98,-9999.0,WSW,5.8,-,N/A,,Clear,250,2012-11-13 15:20:00
5:50 PM,66.2,53.6,64,29.98,-9999.0,WSW,5.8,-,N/A,,Clear,250,2012-11-13 15:50:00
6:20 PM,64.4,50.0,59,29.98,-9999.0,West,6.9,-,N/A,,Clear,270,2012-11-13 16:20:00
6:50 PM,62.6,48.2,59,29.98,-9999.0,NNW,3.5,-,N/A,,Clear,330,2012-11-13 16:50:00
7:20 PM,59.0,50.0,72,29.98,-9999.0,NNW,3.5,-,N/A,,Clear,340,2012-11-13 17:20:00
7:50 PM,57.2,51.8,82,29.98,-9999.0,North,6.9,-,N/A,,Clear,10,2012-11-13 17:50:00
8:00 PM,57,51,75,29.99,6,North,6.9,,,,,10,2012-11-13 18:00:00
8:20 PM,57.2,51.8,82,29.98,-9999.0,North,4.6,-,N/A,,Clear,10,2012-11-13 18:20:00
8:50 PM,55.4,51.8,88,29.98,-9999.0,NE,2.3,-,N/A,,Clear,50,2012-11-13 18:50:00
9:20 PM,55.4,50.0,82,30.01,-9999.0,North,3.5,-,N/A,,Clear,350,2012-11-13 19:20:00
9:50 PM,55.4,50.0,82,30.01,-9999.0,North,2.3,-,N/A,,Clear,350,2012-11-13 19:50:00
10:20 PM,53.6,50.0,88,29.98,-9999.0,North,4.6,-,N/A,,Clear,350,2012-11-13 20:20:00
10:50 PM,55.4,48.2,77,29.98,-9999.0,North,4.6,-,N/A,,Clear,350,2012-11-13 20:50:00
11:20 PM,55.4,48.2,77,29.98,-9999.0,NW,5.8,-,N/A,,Clear,320,2012-11-13 21:20:00
11:50 PM,55.4,46.4,72,29.98,-9999.0,NNW,4.6,-,N/A,,Clear,330,2012-11-13 21:50:00